WA9LT Weather Reports


time (UTC)temp
C
wind
direction
speed
KPH
gust
KPH
rain 1hr
cm
rain 24hr
cm
rain mn
cm
humidity
%
barometer
mb
20260906145622 23 94 4.8 8.0 0.00 0.00 0.00 69
20260906145316 23 333 3.2 4.8 0.00 0.00 0.00 69
20260906144121 22 77 3.2 4.8 0.00 0.00 0.00 69
20260906142621 22 58 1.6 3.2 0.00 0.00 0.00 69
20260906141122 21 67 1.6 9.7 0.00 0.00 0.00 69
20260906135622 21 330 0.0 0.0 0.00 0.00 0.00 69
20260906134122 21 45 1.6 3.2 0.00 0.00 0.00 69
20260906132621 20 68 4.8 11.3 0.00 0.00 0.00 69
20260906132221 20 41 1.6 1.6 0.00 0.00 0.00 69
20260906131121 20 41 1.6 6.4 0.00 0.00 0.00 69
20260906125621 20 79 8.0 9.7 0.00 0.00 0.00 69
20260906124123 20 72 1.6 6.4 0.00 0.00 0.00 69
20260906122622 20 25 1.6 1.6 0.00 0.00 0.00 69
20260906121121 20 43 0.0 3.2 0.00 0.00 0.00 69
20260906115621 19 25 3.2 6.4 0.00 0.00 0.00 69
20260906114122 19 80 1.6 3.2 0.00 0.00 0.00 69
20260906112622 19 41 0.0 0.0 0.00 0.00 0.00 69
20260906112333 19 65 1.6 4.8 0.00 0.00 0.00 69
20260906111121 19 65 0.0 1.6 0.00 0.00 0.00 69
20260906105623 20 26 0.0 1.6 0.00 0.00 0.00 69
20260906105215 20 74 1.6 3.2 0.00 0.00 0.00 69
20260906104122 20 38 1.6 3.2 0.00 0.00 0.00 69
20260906102622 20 331 1.6 6.4 0.00 0.00 0.00 69
20260906102324 20 93 3.2 4.8 0.00 0.00 0.00 69
20260906101123 20 75 3.2 9.7 0.00 0.00 0.00 69
20260906095623 20 110 0.0 0.0 0.00 0.00 0.00 69
20260906095203 20 315 0.0 0.0 0.00 0.00 0.00 69
20260906094122 20 37 0.0 0.0 0.00 0.00 0.00 69
20260906092622 20 41 0.0 1.6 0.00 0.00 0.00 69
20260906092331 21 40 0.0 0.0 0.00 0.00 0.00 69
20260906091123 21 34 0.0 0.0 0.00 0.00 0.00 69
20260906085623 21 83 0.0 0.0 0.00 0.00 0.00 69
20260906085432 21 65 0.0 0.0 0.00 0.00 0.00 69
20260906084121 21 16 0.0 3.2 0.00 0.00 0.00 69
20260906082621 21 15 1.6 1.6 0.00 0.00 0.00 69
20260906082327 21 44 3.2 8.0 0.00 0.00 0.00 69
20260906081122 21 25 3.2 3.2 0.00 0.00 0.00 69
20260906075622 21 23 0.0 0.0 0.00 0.00 0.00 69
20260906074121 21 48 0.0 1.6 0.00 0.00 0.00 69
20260906072622 21 65 1.6 6.4 0.00 0.00 0.00 69
20260906072427 21 81 4.8 3.2 0.00 0.00 0.00 69
20260906071123 21 200 3.2 1.6 0.00 0.00 0.00 69
20260906065623 21 65 3.2 8.0 0.00 0.00 0.00 69
20260906065338 22 98 1.6 6.4 0.00 0.00 0.00 69
20260906064121 21 59 1.6 1.6 0.00 0.00 0.00 69
20260906062622 21 70 4.8 8.0 0.00 0.00 0.00 69
20260906062322 21 55 4.8 8.0 0.00 0.00 0.00 69
20260906061122 22 71 4.8 9.7 0.00 0.00 0.00 69
20260906055622 22 76 1.6 8.0 0.00 0.00 0.00 69
20260906054121 22 124 1.6 1.6 0.00 0.00 0.00 69
20260906052621 22 48 0.0 0.0 0.00 0.00 0.00 69
20260906052320 22 8 0.0 0.0 0.00 0.00 0.00 69
20260906051122 22 69 3.2 6.4 0.00 0.00 0.00 69
20260906045622 22 16 1.6 3.2 0.00 0.00 0.00 69
20260906045606 22 66 3.2 9.7 0.00 0.00 0.00 69
20260906044121 22 48 3.2 3.2 0.00 0.00 0.00 69
20260906042621 22 113 3.2 8.0 0.00 0.00 0.00 69
20260906041122 23 67 4.8 9.7 0.00 0.00 0.00 69
20260906035622 23 285 0.0 1.6 0.00 0.00 0.00 69
20260906034122 22 56 0.0 3.2 0.00 0.00 0.00 69
20260906032622 22 124 0.0 0.0 0.00 0.00 0.00 69
20260906032331 22 124 0.0 0.0 0.00 0.00 0.00 69
20260906031123 22 124 0.0 0.0 0.00 0.00 0.00 69
20260906025623 22 124 0.0 0.0 0.00 0.00 0.00 69
20260906025401 22 124 0.0 0.0 0.00 0.00 0.00 69
20260906024122 22 124 0.0 0.0 0.00 0.00 0.00 69
20260906022623 22 337 0.0 0.0 0.00 0.00 0.00 69
20260906022524 23 337 0.0 0.0 0.00 0.00 0.00 69
20260906021122 23 337 0.0 0.0 0.00 0.00 0.00 69
20260906015622 23 337 0.0 0.0 0.00 0.00 0.00 69
20260906014121 23 64 1.6 3.2 0.00 0.00 0.00 69
20260906012623 23 71 0.0 0.0 0.00 0.00 0.00 69
20260906012253 24 71 0.0 0.0 0.00 0.00 0.00 69
20260906011122 24 1 0.0 3.2 0.00 0.00 0.00 69
20260906005622 25 2 0.0 1.6 0.00 0.00 0.00 69
20260906004123 25 23 0.0 1.6 0.00 0.00 0.00 69
20260906002623 25 1 1.6 8.0 0.00 0.00 0.00 69
20260906001121 26 26 1.6 1.6 0.00 0.00 0.00 69
20260905235623 26 131 3.2 4.8 0.00 0.00 0.00 69
20260905235350 26 34 3.2 4.8 0.00 0.00 0.00 69
20260905234122 27 137 3.2 8.0 0.00 0.00 0.00 69
20260905232621 27 64 1.6 6.4 0.00 0.00 0.00 69
20260905232404 28 62 3.2 4.8 0.00 0.00 0.00 69
20260905231122 28 348 1.6 4.8 0.00 0.00 0.00 69
20260905225622 28 324 1.6 3.2 0.00 0.00 0.00 69
20260905225447 29 340 3.2 6.4 0.00 0.00 0.00 69
20260905224123 30 161 4.8 11.3 0.00 0.00 0.00 69
20260905222623 30 334 4.8 6.4 0.00 0.00 0.00 69
20260905222523 30 0 4.8 4.8 0.00 0.00 0.00 69
20260905221122 30 126 4.8 9.7 0.00 0.00 0.00 69
20260905215635 31 355 4.8 6.4 0.00 0.00 0.00 69
20260905215622 31 96 3.2 4.8 0.00 0.00 0.00 69
20260905214121 31 63 3.2 6.4 0.00 0.00 0.00 69
20260905212621 30 44 1.6 6.4 0.00 0.00 0.00 69
20260905212555 31 326 3.2 6.4 0.00 0.00 0.00 69
20260905211122 31 1 4.8 8.0 0.00 0.00 0.00 69
20260905205622 32 3 6.4 11.3 0.00 0.00 0.00 69
20260905205507 31 24 3.2 8.0 0.00 0.00 0.00 69
20260905204122 31 76 3.2 4.8 0.00 0.00 0.00 69
20260905202631 32 332 4.8 6.4 0.00 0.00 0.00 69
20260905202622 32 354 4.8 8.0 0.00 0.00 0.00 69
20260905201121 32 350 6.4 12.9 0.00 0.00 0.00 69
20260905195623 32 277 0.0 8.0 0.00 0.00 0.00 69
20260905195435 32 150 1.6 9.7 0.00 0.00 0.00 69
20260905194122 32 1 3.2 4.8 0.00 0.00 0.00 69
20260905192622 32 48 1.6 3.2 0.00 0.00 0.00 69
20260905192447 32 125 0.0 1.6 0.00 0.00 0.00 69
20260905191123 32 330 4.8 8.0 0.00 0.00 0.00 69
20260905185623 32 23 1.6 3.2 0.00 0.00 0.00 69
20260905185420 32 354 4.8 6.4 0.00 0.00 0.00 69
20260905184122 32 122 1.6 4.8 0.00 0.00 0.00 69
20260905182622 32 84 1.6 3.2 0.00 0.00 0.00 69
20260905182338 32 8 0.0 3.2 0.00 0.00 0.00 69
20260905181121 32 358 1.6 1.6 0.00 0.00 0.00 69
20260905175621 32 124 1.6 6.4 0.00 0.00 0.00 69
20260905175437 31 42 1.6 3.2 0.00 0.00 0.00 69
20260905174122 32 352 1.6 1.6 0.00 0.00 0.00 69
20260905172622 32 13 0.0 1.6 0.00 0.00 0.00 69
20260905171121 32 26 1.6 3.2 0.00 0.00 0.00 69
20260905165621 31 66 3.2 3.2 0.00 0.00 0.00 69
20260905164122 31 29 1.6 4.8 0.00 0.00 0.00 69
20260905162624 31 21 3.2 6.4 0.00 0.00 0.00 69
20260905161123 30 15 0.0 4.8 0.00 0.00 0.00 69
20260905155749 30 90 4.8 9.7 0.00 0.00 0.00 69
20260905155623 30 21 3.2 3.2 0.00 0.00 0.00 69
20260905154123 30 81 1.6 9.7 0.00 0.00 0.00 69
20260905152622 30 18 4.8 4.8 0.00 0.00 0.00 69
20260905151122 29 20 1.6 4.8 0.00 0.00 0.00 69